Date,TemperatureHighF,TemperatureAvgF,TemperatureLowF,DewpointHighF,DewpointAvgF,DewpointLowF,HumidityHigh,HumidityAvg,HumidityLow,PressureMaxIn,PressureMinIn,WindSpeedMaxMPH,WindSpeedAvgMPH,GustSpeedMaxMPH,PrecipitationSumIn
2013-1-1,15,6,-5,6,0,-8,86,78,68,30.16,30.04,8,1,8,0.00
2013-1-2,26,19,10,16,12,3,84,75,56,30.05,29.96,14,4,14,0.00
2013-1-3,26,22,13,20,17,9,84,81,78,30.12,29.96,15,4,15,0.00
2013-1-4,29,19,10,20,13,5,86,78,67,30.10,29.97,20,6,20,0.00
2013-1-5,35,26,12,32,22,8,92,85,77,30.12,29.77,19,5,19,0.00
2013-1-6,35,27,16,32,21,13,89,80,68,30.19,29.77,13,3,13,0.00
2013-1-7,37,27,14,26,20,11,88,75,58,30.18,29.93,27,8,27,0.02
2013-1-8,40,34,25,32,28,22,90,79,67,30.03,29.83,25,6,25,0.00
2013-1-9,41,34,21,32,26,16,85,74,59,30.37,29.82,22,6,22,0.00
2013-1-10,43,32,19,34,26,15,92,81,64,30.41,29.79,11,1,11,0.21
2013-1-11,47,40,35,46,39,34,96,95,92,29.81,29.53,23,4,23,0.02
2013-1-12,50,37,24,45,30,17,93,78,67,29.92,29.53,24,8,24,0.04
2013-1-13,24,18,14,18,10,5,84,73,65,30.11,29.81,18,5,18,0.00
2013-1-14,25,16,8,12,8,3,80,71,57,30.34,30.10,17,3,17,0.00
2013-1-15,30,20,11,17,12,6,85,71,54,30.32,29.97,17,4,17,0.00
2013-1-16,32,26,18,28,19,10,87,75,66,29.99,29.67,24,7,24,0.00
2013-1-17,26,18,11,18,7,2,78,63,43,30.30,29.98,16,3,16,0.00
2013-1-18,41,29,10,33,22,4,81,75,66,30.31,29.72,35,8,35,0.00
2013-1-19,43,36,13,35,28,1,83,74,37,29.86,29.55,37,8,37,0.00
2013-1-20,16,10,6,5,-1,-2,74,62,47,30.21,29.86,23,5,23,0.00
2013-1-21,9,2,-4,2,-8,-14,78,63,50,30.18,30.02,22,6,22,0.00
2013-1-22,7,0,-6,-6,-10,-14,71,64,53,30.24,30.16,19,4,19,0.00
2013-1-23,18,10,2,13,3,-6,87,73,60,30.31,29.97,18,5,18,0.00
2013-1-24,18,8,-1,10,0,-7,76,68,57,30.55,30.25,11,2,11,0.00
2013-1-25,24,19,14,19,13,6,86,77,59,30.25,29.83,16,5,16,0.00
2013-1-26,27,17,5,15,9,0,84,72,57,30.29,30.09,11,2,11,0.00
2013-1-27,34,29,24,32,23,13,92,78,62,30.25,29.79,17,3,17,0.00
2013-1-28,39,35,31,34,32,29,95,90,82,29.88,29.70,12,2,12,0.20
2013-1-29,56,43,35,54,42,33,97,95,90,29.72,29.41,23,4,23,1.15
2013-1-30,36,28,16,35,26,12,96,93,86,29.51,29.24,23,6,23,0.10
2013-1-31,16,11,2,12,5,-4,86,78,67,30.02,29.51,22,7,22,0.00
2013-2-1,6,2,-3,1,-5,-9,83,74,65,30.19,30.02,16,6,16,0.00
2013-2-2,15,7,-1,3,0,-6,85,75,56,30.04,29.92,11,2,11,0.00
2013-2-3,20,12,2,10,6,-3,85,75,60,29.94,29.84,18,3,18,0.00
2013-2-4,20,12,6,10,6,-2,86,74,52,29.93,29.85,10,1,10,0.00
2013-2-5,28,18,4,23,13,-1,89,81,73,30.02,29.67,18,4,18,0.00
2013-2-6,33,20,1,28,14,-3,85,78,63,30.13,29.99,10,1,10,0.00
2013-2-7,36,31,21,33,28,18,94,90,82,30.01,29.84,21,2,21,0.14
2013-2-8,28,19,4,20,14,0,91,80,63,30.31,29.99,19,4,19,0.00
2013-2-9,28,21,2,24,18,-2,92,87,82,30.31,30.00,17,4,17,0.00
2013-2-10,43,35,19,42,32,16,95,90,84,30.00,29.32,25,4,25,0.65
2013-2-11,40,32,27,35,27,21,87,82,74,29.89,29.32,29,10,29,0.02
2013-2-12,30,25,21,22,19,16,86,78,68,29.99,29.77,18,6,18,0.00
2013-2-13,38,30,21,30,25,18,89,81,71,29.78,29.60,19,4,19,0.00
2013-2-14,36,33,26,34,29,23,93,87,79,29.91,29.49,19,5,19,0.27
2013-2-15,28,20,12,23,10,5,90,67,48,30.11,29.91,13,3,13,0.00
2013-2-16,22,12,2,5,2,-5,78,65,45,30.11,30.03,15,2,15,0.00
2013-2-17,27,14,-2,16,3,-7,80,63,46,30.11,29.86,19,2,19,0.00
2013-2-18,46,36,27,38,28,16,94,73,62,29.86,29.37,21,5,21,0.10
2013-2-19,29,15,7,27,10,1,95,83,72,30.07,29.43,18,6,18,0.00
2013-2-20,26,14,5,13,6,-1,80,71,57,30.30,30.06,14,3,14,0.00
2013-2-21,26,19,7,23,15,2,91,83,78,30.35,30.00,16,2,16,0.00
2013-2-22,34,28,23,30,25,20,91,89,83,30.01,29.70,13,2,13,0.04
2013-2-23,33,27,20,25,22,16,88,81,68,29.85,29.74,16,4,16,0.00
2013-2-24,38,26,17,27,20,14,87,78,62,30.06,29.84,8,1,8,0.10
2013-2-25,44,29,15,29,22,12,89,76,55,30.09,29.98,8,1,8,0.00
2013-2-26,37,32,25,30,27,22,94,84,66,29.99,29.57,25,5,25,0.00
2013-2-27,33,31,28,30,29,26,94,91,88,29.70,29.55,21,7,21,0.00
2013-2-28,36,31,24,30,26,19,94,82,69,30.07,29.70,20,7,20,0.00
2013-3-1,28,23,14,20,17,10,86,78,69,30.17,30.04,21,5,21,0.00
2013-3-2,29,18,6,16,9,2,82,71,54,30.17,30.07,16,3,16,0.00
2013-3-3,32,15,-1,13,5,-5,84,67,37,30.08,29.99,8,1,8,0.00
2013-3-4,39,23,6,25,16,1,83,73,56,30.06,29.97,13,2,13,0.00
2013-3-5,34,30,25,27,24,22,92,80,62,30.01,29.83,17,4,17,0.02
2013-3-6,35,30,26,27,25,22,89,80,72,30.22,30.00,15,4,15,0.02
2013-3-7,39,26,12,23,18,8,86,70,51,30.35,30.22,7,1,7,0.00
2013-3-8,42,29,14,28,21,10,87,74,57,30.38,30.19,14,2,14,0.00
2013-3-9,43,37,29,36,30,24,89,78,67,30.20,29.73,15,2,15,0.29
2013-3-10,43,39,35,42,37,34,95,92,85,29.76,29.56,16,3,16,1.08
2013-3-11,36,33,29,34,32,25,95,93,85,29.66,29.47,59,2,59,0.08
2013-3-12,35,29,24,26,23,17,92,77,61,29.92,29.66,17,5,17,0.04
2013-3-13,35,26,19,17,13,8,82,60,33,30.21,29.92,15,5,15,0.00
2013-3-14,35,27,16,25,18,10,86,69,50,30.22,29.97,14,2,14,0.00
2013-3-15,39,32,28,34,28,25,91,86,79,29.97,29.76,11,2,11,0.02
2013-3-16,34,27,20,26,20,16,91,76,55,30.05,29.74,15,4,15,0.04
2013-3-17,36,24,15,18,13,7,79,63,46,30.19,29.94,12,3,12,0.00
2013-3-18,36,28,18,31,24,12,91,83,75,29.94,29.48,20,4,20,0.15
2013-3-19,32,21,14,14,10,8,79,64,43,29.94,29.60,24,7,24,0.24
2013-3-20,24,16,10,8,3,-1,65,57,45,29.97,29.91,22,6,22,0.00
2013-3-21,32,20,8,15,8,1,74,61,45,29.96,29.91,14,2,14,0.00
2013-3-22,38,23,10,19,12,4,79,65,45,30.01,29.93,10,1,10,0.00
2013-3-23,42,28,15,23,17,10,84,65,40,30.06,29.99,10,1,10,0.00
2013-3-24,35,31,28,30,25,21,89,79,69,29.99,29.71,18,5,18,0.02
2013-3-25,36,30,24,26,24,19,85,76,62,30.01,29.75,20,5,20,0.00
2013-3-26,44,35,30,29,26,23,82,69,55,30.16,30.01,12,3,12,0.00
2013-3-27,46,37,27,28,23,20,76,59,37,30.22,30.15,12,2,12,0.00
2013-3-28,47,35,23,26,21,18,81,61,35,30.26,30.19,9,1,9,0.00
2013-3-29,49,36,23,28,22,18,84,61,36,30.25,30.14,8,1,8,0.00
2013-3-30,54,42,32,40,31,22,87,64,51,30.15,29.73,21,6,21,0.02
2013-3-31,48,40,31,40,33,20,93,80,55,29.83,29.63,22,5,22,0.00
2013-4-1,37,30,25,21,15,11,68,54,36,30.09,29.82,20,5,20,0.00
2013-4-2,40,32,24,19,16,12,70,53,33,30.23,30.08,17,4,17,0.00
2013-4-3,46,34,20,22,17,12,80,53,31,30.38,30.19,14,2,14,0.00
2013-4-4,57,42,31,36,26,16,69,53,40,30.19,29.87,22,6,22,0.00
2013-4-5,49,38,26,28,24,21,84,59,35,30.17,29.97,13,2,13,0.00
2013-4-6,61,46,32,49,36,22,88,67,45,30.09,29.47,23,6,23,0.06
2013-4-7,53,42,36,48,35,30,89,75,56,29.92,29.47,19,4,19,0.00
2013-4-8,48,41,36,43,37,30,93,85,76,29.95,29.57,17,2,17,0.49
2013-4-9,41,38,36,40,36,33,95,93,88,29.99,29.83,20,3,20,1.02
2013-4-10,38,36,33,36,33,31,94,91,86,30.04,29.82,16,3,17,0.78
2013-4-11,38,36,34,36,34,32,94,92,88,29.89,29.52,22,4,22,0.18
2013-4-12,40,36,34,37,34,30,95,91,81,29.72,29.47,14,2,14,0.15
2013-4-13,38,35,31,31,28,25,91,76,63,29.91,29.68,18,5,18,0.14
2013-4-14,50,38,28,45,33,24,88,83,74,29.94,29.55,20,3,20,0.06
2013-4-15,61,50,42,50,44,35,95,80,43,29.88,29.51,26,6,26,0.65
2013-4-16,52,42,34,37,32,29,83,69,48,30.22,29.87,16,3,16,0.00
2013-4-17,42,40,37,40,36,31,93,85,75,30.26,29.83,21,2,21,0.65
2013-4-18,54,46,40,52,44,35,95,92,80,29.85,29.26,34,4,34,0.61
2013-4-19,42,36,30,34,28,20,84,73,54,29.82,29.27,34,10,34,0.00
2013-4-20,46,35,27,22,18,12,75,53,29,30.33,29.79,17,4,17,0.00
2013-4-21,52,41,31,30,25,22,76,55,35,30.43,30.18,19,4,19,0.00
2013-4-22,69,53,42,43,36,29,68,52,35,30.20,29.94,19,6,19,0.00
2013-4-23,54,44,38,47,36,29,88,74,50,29.96,29.81,18,5,18,0.04
2013-4-24,54,44,33,31,26,21,76,53,28,29.95,29.88,20,4,21,0.00
2013-4-25,53,44,38,35,31,26,85,61,36,30.20,29.88,21,5,21,0.00
2013-4-26,70,55,40,46,38,28,69,53,39,30.21,30.06,30,9,30,0.00
2013-4-27,68,58,47,51,45,40,85,65,46,30.16,29.96,22,5,22,0.00
2013-4-28,74,58,42,48,43,38,86,61,33,29.96,29.72,9,1,10,0.00
2013-4-29,72,61,53,56,52,47,86,73,52,29.79,29.68,20,5,20,0.00
2013-4-30,87,72,59,63,55,48,90,60,28,29.83,29.63,32,10,32,0.14
2013-5-1,83,68,52,58,52,40,72,57,40,30.17,29.81,21,3,21,0.00
2013-5-2,56,46,38,45,39,34,92,76,59,30.22,30.13,19,6,19,0.98
2013-5-3,50,42,36,47,40,34,94,92,89,30.17,29.95,15,3,15,0.43
2013-5-4,74,59,46,53,48,43,91,69,40,30.01,29.93,12,1,12,0.02
2013-5-5,77,61,44,50,44,39,88,58,29,30.04,29.96,10,1,10,0.00
2013-5-6,80,61,44,50,42,36,83,54,25,30.02,29.92,10,1,10,0.00
2013-5-7,81,68,45,47,41,36,81,42,22,30.01,29.93,10,2,10,0.00
2013-5-8,83,65,46,51,44,36,85,52,20,29.99,29.89,10,1,10,0.00
2013-5-9,72,58,45,59,50,43,93,76,54,29.91,29.85,13,1,13,0.92
2013-5-10,51,44,41,45,41,38,94,90,79,29.94,29.82,20,4,20,0.95
2013-5-11,54,47,40,49,37,22,94,71,35,29.96,29.72,24,6,24,0.00
2013-5-12,54,44,36,33,28,24,80,55,31,30.06,29.95,22,5,22,0.00
2013-5-13,62,46,29,39,31,26,91,60,31,30.11,29.85,14,2,14,0.00
2013-5-14,83,67,50,57,48,32,61,50,36,29.89,29.49,21,5,21,0.00
2013-5-15,79,70,55,59,46,39,67,45,26,29.79,29.49,21,3,21,0.00
2013-5-16,81,66,51,54,45,31,80,50,34,29.95,29.78,13,1,13,0.00
2013-5-17,60,54,49,51,43,31,90,70,38,30.09,29.92,12,1,12,0.64
2013-5-18,80,65,52,64,55,46,83,71,53,30.01,29.89,10,1,10,0.00
2013-5-19,85,72,61,67,62,56,87,72,50,29.90,29.61,23,3,23,0.02
2013-5-20,83,75,63,62,59,56,86,61,43,29.75,29.60,26,6,26,0.00
2013-5-21,79,70,59,65,59,55,87,71,49,29.66,29.56,22,5,22,0.06
2013-5-22,66,59,53,62,57,52,95,91,81,29.73,29.58,11,1,11,1.26
2013-5-23,59,51,39,52,43,32,95,76,39,30.27,29.72,20,6,21,0.29
2013-5-24,65,49,34,44,37,31,92,65,41,30.38,30.23,10,1,10,0.00
2013-5-25,65,54,44,41,37,33,71,53,37,30.35,30.24,13,1,13,0.00
2013-5-26,67,54,39,45,40,35,90,61,38,30.27,30.11,12,1,12,0.00
2013-5-27,56,53,50,51,46,38,94,79,57,30.15,29.84,21,2,21,0.04
2013-5-28,73,59,50,66,57,49,96,92,79,29.87,29.65,10,1,10,0.43
2013-5-29,83,70,60,67,63,58,97,79,55,29.85,29.72,21,3,21,0.08
2013-5-30,85,73,62,70,66,61,94,79,55,29.85,29.68,26,7,26,0.69
2013-5-31,76,69,64,68,63,61,92,82,63,29.78,29.64,22,7,22,0.02
2013-6-1,78,70,62,67,63,56,95,79,60,29.66,29.55,22,5,22,0.25
2013-6-2,64,56,48,58,46,41,88,72,47,29.96,29.62,18,3,18,0.00
2013-6-3,72,58,43,52,45,41,94,65,36,30.04,29.94,12,2,12,0.00
2013-6-4,73,60,51,54,47,41,88,64,48,30.12,30.01,12,2,12,0.06
2013-6-5,65,55,51,55,49,45,90,81,54,30.09,29.91,13,1,13,0.12
2013-6-6,62,56,52,55,51,47,93,85,77,29.93,29.87,10,1,10,0.47
2013-6-7,73,61,51,56,50,46,93,71,41,29.94,29.86,9,1,10,0.00
2013-6-8,74,61,47,55,50,43,92,70,39,29.97,29.86,9,1,9,0.00
2013-6-9,79,66,55,63,56,47,83,69,51,29.98,29.78,17,2,17,0.00
2013-6-10,81,69,59,67,62,56,91,78,57,29.82,29.73,11,1,12,0.06
2013-6-11,85,72,60,66,63,58,95,75,50,29.87,29.75,15,1,15,0.00
2013-6-12,80,68,59,68,64,57,94,87,67,29.86,29.60,13,1,13,1.51
2013-6-13,77,66,56,61,57,52,95,74,50,30.02,29.69,16,2,16,0.02
2013-6-14,80,65,51,59,53,47,93,68,47,30.08,29.95,11,1,11,0.14
2013-6-15,80,68,55,70,61,47,93,80,62,30.01,29.75,25,3,25,1.06
2013-6-16,85,74,62,67,59,50,96,66,32,29.85,29.77,17,2,17,0.00
2013-6-17,87,71,57,63,57,51,85,63,34,29.94,29.80,15,2,15,0.00
2013-6-18,74,62,50,57,50,43,88,67,38,30.04,29.92,12,2,12,0.00
2013-6-19,78,64,47,52,48,43,91,61,38,30.09,30.01,13,2,13,0.00
2013-6-20,86,72,57,64,54,42,64,53,37,30.09,29.99,15,3,15,0.00
2013-6-21,78,72,66,68,64,55,93,77,59,30.05,29.80,20,3,21,0.94
2013-6-22,81,72,68,72,67,65,93,85,71,30.02,29.82,20,3,20,0.21
2013-6-23,87,75,65,74,68,63,94,79,63,29.95,29.80,22,7,22,0.04
2013-6-24,80,74,69,70,68,65,92,81,67,29.95,29.76,20,4,20,0.00
2013-6-25,83,72,66,74,68,64,95,87,71,29.90,29.74,16,2,16,0.53
2013-6-26,84,74,68,71,68,66,95,84,63,29.77,29.67,12,2,12,0.00
2013-6-27,85,76,67,73,69,64,95,79,58,29.73,29.63,18,2,18,0.04
2013-6-28,79,71,64,66,63,61,94,78,57,29.69,29.56,17,2,17,0.28
2013-6-29,75,67,63,64,61,55,95,83,62,29.79,29.57,17,2,17,0.47
2013-6-30,78,67,56,62,54,45,85,63,33,29.99,29.77,16,3,16,0.00
2013-7-1,82,68,53,58,52,48,89,60,35,30.07,29.98,16,1,16,0.00
2013-7-2,78,64,54,56,49,43,89,60,37,30.07,30.02,12,1,12,0.00
2013-7-3,73,67,59,63,60,47,92,79,67,30.04,29.96,10,1,12,0.04
2013-7-4,82,72,62,64,60,56,95,70,43,30.03,29.95,11,3,15,0.00
2013-7-5,85,75,66,67,63,60,84,68,48,30.01,29.93,16,5,16,0.00
2013-7-6,86,76,66,67,64,60,86,67,46,29.99,29.89,16,4,17,0.00
2013-7-7,87,78,68,73,68,63,89,74,57,29.94,29.85,14,4,14,0.00
2013-7-8,88,77,71,76,71,68,94,82,64,29.94,29.84,20,3,20,0.41
2013-7-9,84,75,66,76,70,64,96,86,73,29.95,29.75,18,2,18,0.08
2013-7-10,79,73,60,73,63,56,92,71,47,29.96,29.77,16,3,16,0.00
2013-7-11,82,69,55,64,57,52,95,69,37,30.07,29.95,9,1,10,0.00
2013-7-12,84,70,54,61,55,49,93,64,31,30.11,30.02,12,1,12,0.00
2013-7-13,86,73,61,65,58,53,78,62,41,30.11,30.02,16,3,16,0.00
2013-7-14,89,76,62,70,65,56,88,69,51,30.18,30.09,12,1,12,0.00
2013-7-15,92,79,66,75,70,64,92,75,52,30.23,30.17,10,1,10,0.00
2013-7-16,93,83,73,77,74,70,92,75,56,30.23,30.17,14,3,14,0.00
2013-7-17,95,84,76,77,74,71,90,72,50,30.24,30.11,15,2,15,0.00
2013-7-18,94,86,74,77,74,70,91,68,51,30.13,29.84,18,5,18,0.00
2013-7-19,93,83,72,73,70,62,80,65,46,29.86,29.69,23,6,23,0.00
2013-7-20,85,72,62,66,62,55,92,70,49,29.93,29.77,10,1,10,0.00
2013-7-21,82,67,60,66,60,55,94,77,54,29.93,29.84,15,1,15,0.80
2013-7-22,85,73,61,71,66,59,96,80,58,29.86,29.59,18,4,18,0.12
2013-7-23,76,68,56,69,58,52,88,70,54,29.95,29.66,16,3,16,0.14
2013-7-24,75,62,50,58,52,48,94,71,47,30.03,29.93,8,1,8,0.00
2013-7-25,79,68,53,64,58,49,87,73,55,30.02,29.90,12,4,17,0.00
2013-7-26,76,68,59,68,62,54,92,82,59,29.91,29.77,17,4,17,0.29
2013-7-27,62,56,52,56,49,45,90,76,58,29.89,29.80,15,3,15,0.00
2013-7-28,69,59,52,55,51,48,90,76,59,29.94,29.77,14,3,14,0.00
2013-7-29,77,63,54,60,55,50,89,74,55,30.12,29.93,10,1,10,0.00
2013-7-30,78,66,54,64,59,52,94,81,54,30.13,30.03,16,2,16,0.02
2013-7-31,80,68,60,67,62,56,93,82,62,30.05,29.88,12,1,12,0.00
2013-8-1,80,68,58,60,56,52,94,68,40,29.93,29.85,13,2,13,0.00
2013-8-2,82,70,60,67,60,54,93,72,42,29.91,29.78,15,2,15,0.08
2013-8-3,79,66,52,60,54,49,93,68,40,30.07,29.89,17,1,17,0.00
2013-8-4,78,64,52,60,54,50,94,73,44,30.18,30.06,12,1,12,0.00
2013-8-5,74,64,55,64,58,52,91,80,66,30.07,29.81,14,3,17,0.00
2013-8-6,84,74,65,70,66,61,94,78,55,29.82,29.72,15,4,16,0.00
2013-8-7,80,71,62,70,64,60,95,79,61,29.92,29.70,17,2,17,0.27
2013-8-8,81,68,59,62,57,49,95,71,46,30.00,29.91,15,1,15,0.00
2013-8-9,83,68,56,64,56,48,84,67,46,30.00,29.91,13,1,13,0.00
2013-8-10,76,65,54,61,56,52,94,74,49,30.10,29.99,8,1,8,0.00
2013-8-11,70,62,54,66,60,52,95,91,84,30.08,29.97,9,0,9,0.26
2013-8-12,82,70,62,70,62,57,97,78,50,29.99,29.84,11,1,11,0.02
2013-8-13,72,60,48,57,50,45,91,70,47,30.12,29.93,17,2,17,0.00
2013-8-14,74,60,46,55,50,44,95,71,44,30.17,30.05,9,1,11,0.00
2013-8-15,81,67,53,60,54,49,91,67,36,30.09,30.01,14,2,14,0.00
2013-8-16,83,67,52,62,55,50,94,69,39,30.14,30.05,8,1,8,0.00
2013-8-17,83,67,53,63,55,51,93,69,38,30.19,30.11,15,1,15,0.00
2013-8-18,82,68,52,63,56,50,94,69,40,30.17,30.03,13,2,13,0.00
2013-8-19,84,70,57,65,59,54,90,70,46,30.05,29.96,15,2,15,0.00
2013-8-20,87,76,65,69,65,59,87,71,48,30.02,29.94,21,5,21,0.00
2013-8-21,89,78,69,71,67,64,85,70,53,29.97,29.84,24,6,24,0.00
2013-8-22,82,71,61,72,65,54,93,81,64,30.07,29.94,9,1,9,0.04
2013-8-23,85,68,53,65,57,51,93,70,43,30.14,30.06,9,1,9,0.00
2013-8-24,84,70,53,66,59,50,92,70,49,30.20,30.09,18,3,18,0.00
2013-8-25,90,79,68,71,66,59,78,66,51,30.13,30.01,24,8,24,0.00
2013-8-26,91,80,72,76,70,66,80,72,54,30.08,29.89,20,6,20,0.00
2013-8-27,95,84,74,75,73,69,86,71,51,29.91,29.74,24,5,24,0.00
2013-8-28,86,76,67,73,70,64,93,81,59,30.00,29.79,9,2,9,0.00
2013-8-29,88,76,63,72,67,61,95,76,52,30.04,29.92,14,2,14,0.00
2013-8-30,91,76,66,77,70,62,90,81,62,29.94,29.73,17,4,17,0.55
2013-8-31,83,69,61,68,64,60,95,83,58,29.85,29.75,8,1,8,0.00
2013-9-1,86,70,61,73,65,58,97,86,61,29.80,29.65,14,2,14,0.04
2013-9-2,70,63,52,60,56,49,94,80,61,29.96,29.77,13,2,13,0.02
2013-9-3,76,62,48,57,52,46,95,74,46,30.04,29.94,12,1,12,0.00
2013-9-4,85,68,56,64,59,52,90,73,47,30.10,29.96,11,1,11,0.00
2013-9-5,76,64,53,60,54,48,92,72,47,30.23,30.08,15,1,15,0.00
2013-9-6,86,68,49,67,58,46,92,73,52,30.18,29.91,16,4,16,0.00
2013-9-7,88,76,70,73,68,63,89,77,60,29.96,29.83,16,3,16,0.11
2013-9-8,72,67,63,66,62,58,89,85,78,30.03,29.89,9,1,9,0.00
2013-9-9,90,77,64,77,71,61,93,81,63,29.94,29.71,19,4,19,0.00
2013-9-10,96,84,75,72,66,62,74,57,35,29.91,29.74,21,6,21,0.00
2013-9-11,82,73,66,69,66,63,93,79,59,30.04,29.87,15,2,15,0.63
2013-9-12,76,65,56,64,56,44,95,74,46,30.08,29.91,16,2,16,0.00
2013-9-13,65,54,46,46,42,40,88,66,41,30.16,30.07,15,2,15,0.00
2013-9-14,71,56,41,53,46,39,94,70,43,30.12,29.94,16,2,16,0.00
2013-9-15,65,56,53,58,52,47,94,86,65,30.21,29.94,10,2,11,0.55
2013-9-16,67,53,40,48,44,37,92,74,48,30.35,30.19,13,1,13,0.00
2013-9-17,70,56,41,57,49,39,94,79,54,30.32,30.05,13,2,16,0.00
2013-9-18,79,68,59,67,61,53,90,79,65,30.08,29.83,23,6,23,0.02
2013-9-19,84,72,66,74,68,64,98,88,71,29.84,29.66,18,5,22,1.65
2013-9-20,75,66,58,67,62,54,98,86,64,29.77,29.65,17,3,17,0.08
2013-9-21,62,53,44,56,48,42,96,82,58,29.94,29.75,15,2,15,0.00
2013-9-22,65,51,39,48,43,38,98,79,48,30.04,29.93,8,1,10,0.00
2013-9-23,68,53,41,55,47,40,97,82,57,30.08,29.99,12,1,12,0.00
2013-9-24,73,57,46,60,51,44,98,82,55,30.01,29.92,11,1,11,0.00
2013-9-25,73,57,45,63,51,44,98,84,56,29.97,29.89,11,0,11,0.00
2013-9-26,77,60,47,65,53,46,99,80,48,30.04,29.94,13,1,13,0.00
2013-9-27,81,63,51,60,54,49,97,74,42,30.10,29.99,17,2,17,0.00
2013-9-28,81,67,55,66,58,50,96,73,53,30.02,29.76,24,6,24,0.49
2013-9-29,72,58,47,56,49,44,98,75,37,30.00,29.88,9,1,9,0.02
2013-9-30,72,59,46,52,48,44,94,67,44,29.94,29.76,20,4,20,0.00
2013-10-1,81,67,56,64,58,49,93,74,53,29.90,29.75,22,6,22,0.00
2013-10-2,79,61,44,59,47,40,96,66,29,30.05,29.88,8,0,8,0.00
2013-10-3,77,66,56,69,61,43,97,84,60,29.93,29.78,18,2,18,1.57
2013-10-4,64,62,59,63,61,59,99,99,97,29.98,29.82,12,1,12,0.74
2013-10-5,73,65,59,72,65,59,100,98,96,29.93,29.68,13,2,16,0.32
2013-10-6,65,55,48,63,47,42,95,75,52,29.70,29.60,15,3,15,0.00
2013-10-7,67,53,44,50,46,42,97,79,42,30.02,29.64,13,2,13,0.04
2013-10-8,75,58,41,55,47,40,98,72,39,30.09,30.00,18,3,18,0.00
2013-10-9,74,61,51,54,49,45,82,66,40,30.15,30.05,16,4,16,0.00
2013-10-10,75,58,44,60,49,42,96,75,41,30.11,29.99,12,1,12,0.00
2013-10-11,77,62,52,62,54,50,96,78,51,30.01,29.88,17,2,17,0.00
2013-10-12,71,62,50,62,53,40,90,72,45,30.08,29.84,21,5,21,0.00
2013-10-13,63,50,39,46,39,36,90,68,41,30.34,30.06,13,2,13,0.00
2013-10-14,64,48,35,51,41,34,96,79,51,30.36,30.07,11,1,11,0.00
2013-10-15,59,54,47,59,51,43,98,90,80,30.11,29.67,16,3,16,0.33
2013-10-16,57,50,47,51,48,45,95,90,80,29.86,29.70,13,2,13,0.00
2013-10-17,55,48,45,45,42,39,95,79,57,29.86,29.73,11,1,11,0.00
2013-10-18,51,45,42,45,40,38,89,82,75,29.87,29.72,16,3,16,0.00
2013-10-19,53,43,35,40,37,32,92,79,46,29.85,29.65,17,3,17,0.00
2013-10-20,49,42,33,47,40,32,98,92,77,29.80,29.64,21,3,21,0.12
2013-10-21,48,39,32,45,32,22,93,75,56,29.86,29.65,18,4,18,0.00
2013-10-22,49,38,27,34,28,23,88,70,51,29.88,29.82,12,2,12,0.00
2013-10-23,47,36,27,31,27,22,89,72,40,29.93,29.86,14,2,14,0.00
2013-10-24,46,37,29,31,28,24,83,71,51,30.21,29.92,17,3,17,0.00
2013-10-25,52,40,26,33,28,23,93,66,45,30.27,29.80,25,6,27,0.00
2013-10-26,53,47,42,38,32,28,72,57,43,29.98,29.68,27,6,27,0.00
2013-10-27,55,43,30,36,31,26,86,63,39,29.97,29.81,21,3,21,0.00
2013-10-28,46,40,37,34,32,29,83,72,61,30.36,29.94,12,2,12,0.00
2013-10-29,54,42,31,45,36,26,94,82,68,30.35,30.07,11,1,11,0.00
2013-10-30,56,50,39,54,48,38,98,95,90,30.09,29.69,14,1,14,0.00
2013-10-31,62,56,44,62,56,42,99,98,95,29.71,29.18,22,4,22,2.45
2013-11-1,46,44,42,44,42,40,96,94,90,29.67,29.23,19,3,19,0.12
2013-11-2,46,42,39,42,39,36,98,91,73,30.07,29.66,12,2,12,0.00
2013-11-3,53,42,31,44,36,30,98,82,54,30.22,30.06,16,2,16,0.00
2013-11-4,53,49,44,46,41,38,86,74,62,30.16,29.96,21,6,21,0.00
2013-11-5,56,51,48,51,48,45,97,90,78,30.18,29.80,22,3,22,0.37
2013-11-6,55,43,31,54,40,26,98,89,72,30.07,29.62,23,6,23,0.31
2013-11-7,44,34,26,33,29,23,94,82,60,30.14,30.06,12,2,12,0.00
2013-11-8,46,36,25,35,31,23,95,81,65,30.20,29.73,24,4,24,0.00
2013-11-9,52,46,40,41,36,27,81,68,56,29.98,29.66,23,8,23,0.00
2013-11-10,49,43,38,34,31,28,72,63,47,30.22,29.98,19,5,19,0.00
2013-11-11,42,33,24,36,26,16,95,76,61,30.45,29.96,17,5,17,0.10
2013-11-12,32,24,18,19,15,12,85,69,44,30.60,30.45,14,3,14,0.00
2013-11-13,42,31,20,21,18,14,82,60,36,30.46,29.95,29,10,29,0.00
2013-11-14,48,39,32,33,26,20,74,61,49,29.95,29.79,21,9,21,0.00
2013-11-15,56,44,38,40,34,30,85,68,55,29.86,29.80,15,6,15,0.00
2013-11-16,59,49,39,56,47,34,97,92,83,29.82,29.42,28,8,28,0.04
2013-11-17,59,51,41,56,49,34,98,92,76,29.58,29.10,25,6,25,1.26
2013-11-18,41,33,26,34,26,22,83,73,67,30.16,29.57,25,7,25,0.00
2013-11-19,43,31,20,31,25,18,92,79,56,30.30,30.16,10,1,10,0.00
2013-11-20,43,38,33,34,30,28,93,76,56,30.18,30.01,20,4,20,0.00
2013-11-21,45,40,36,40,38,34,94,90,81,30.17,30.03,10,1,10,0.00
2013-11-22,38,32,25,36,26,16,96,80,61,30.38,30.16,17,4,17,0.00
2013-11-23,26,18,12,18,8,3,75,64,48,30.61,30.30,21,6,21,0.00
2013-11-24,28,18,10,10,7,4,81,61,39,30.58,30.14,26,6,26,0.00
2013-11-25,30,26,22,26,21,9,94,81,54,30.15,29.90,28,9,28,0.00
2013-11-26,34,26,13,28,18,5,88,72,47,30.11,29.91,18,4,18,0.00
2013-11-27,29,19,10,17,11,5,86,71,49,30.16,30.09,13,2,13,0.00
2013-11-28,30,21,12,19,15,9,88,76,65,30.41,30.06,10,2,10,0.00
2013-11-29,31,21,8,23,15,5,89,79,62,30.51,30.24,12,1,12,0.00
2013-11-30,45,35,29,34,28,23,87,76,64,30.25,29.94,19,5,19,0.00
2013-12-1,42,32,25,32,27,22,92,83,64,30.06,29.91,10,1,10,0.00
2013-12-2,40,32,22,36,29,20,94,87,75,29.91,29.69,12,1,12,0.00
2013-12-3,39,36,34,38,36,32,98,97,92,29.70,29.63,14,1,14,0.25
2013-12-4,50,42,36,50,41,33,100,98,89,29.70,29.37,26,3,26,0.02
2013-12-5,36,24,14,34,16,8,91,74,59,30.18,29.52,21,7,21,0.00
2013-12-6,18,10,6,8,4,1,82,76,58,30.44,30.15,14,4,14,0.00
2013-12-7,16,7,1,5,0,-4,81,72,54,30.57,30.43,14,3,14,0.00
2013-12-8,22,16,6,20,10,0,92,79,68,30.50,29.86,10,1,10,0.00
2013-12-9,20,11,-2,18,6,-7,92,80,61,30.06,29.82,23,5,23,0.00
2013-12-10,20,8,-5,12,2,-9,87,76,63,30.15,29.80,21,6,21,0.00
2013-12-11,13,6,-4,10,-2,-12,89,71,54,30.41,30.14,18,4,18,0.00
2013-12-12,18,10,-3,11,3,-10,81,73,62,30.37,30.07,16,6,16,0.00
2013-12-13,26,19,12,18,13,8,85,79,69,30.15,30.05,14,2,14,0.00
2013-12-14,28,22,18,24,19,16,92,89,85,30.12,29.83,11,2,11,0.00
2013-12-15,20,10,-1,18,3,-8,92,73,56,30.04,29.81,18,4,18,0.00
2013-12-16,15,7,-5,11,1,-10,90,77,62,30.05,29.89,11,2,11,0.00
2013-12-17,37,24,14,27,20,11,94,83,60,29.96,29.78,18,5,18,0.08
2013-12-18,35,23,9,26,14,4,81,71,46,30.01,29.65,21,6,21,0.00
2013-12-19,30,26,17,27,22,15,94,86,74,29.93,29.70,12,2,15,0.00
2013-12-20,25,23,22,23,21,20,96,93,92,29.83,29.73,15,4,15,0.00
2013-12-21,28,25,23,27,24,22,97,96,96,29.82,29.65,12,2,12,0.00
2013-12-22,27,23,18,26,22,16,97,93,88,30.01,29.62,21,4,21,0.00
2013-12-23,21,15,5,19,13,2,94,91,85,30.29,30.01,12,2,12,0.00
2013-12-24,15,4,-11,10,0,-15,90,84,73,30.42,30.19,14,2,14,0.00
2013-12-25,23,19,13,21,17,10,94,91,88,30.19,29.96,15,5,15,0.00
2013-12-26,23,19,11,20,16,8,92,88,82,30.15,29.97,11,2,11,0.00
2013-12-27,34,24,6,30,21,4,94,87,79,30.17,29.89,20,5,20,0.02
2013-12-28,43,36,24,34,30,22,93,80,69,29.96,29.67,18,7,20,0.08
2013-12-29,38,20,-2,32,14,-8,93,79,66,30.12,29.63,19,5,19,0.00
2013-12-30,4,-3,-11,-2,-9,-16,85,74,60,30.22,30.07,10,2,10,0.00
2013-12-31,8,5,-1,2,-1,-9,85,77,67,30.27,30.06,11,3,11,0.00
2014-1-1,10,5,-2,3,-2,-9,76,72,67,30.30,30.20,14,3,14,0.00
2014-1-2,13,5,-8,4,-1,-13,83,75,62,30.32,30.16,14,3,14,0.00